TimeCDT,TemperatureF,Dew PointF,Humidity,Sea Level PressureIn,VisibilityMPH,Wind Direction,Wind SpeedMPH,Gust SpeedMPH,PrecipitationIn,Events,Conditions,WindDirDegrees,DateUTC
12:08 AM,59.0,59.0,100,30.05,1.2,Calm,Calm,-,N/A,,Partly Cloudy,0,2013-08-12 05:08:00
12:10 AM,59.0,59.0,100,30.05,0.8,Calm,Calm,-,N/A,,Partly Cloudy,0,2013-08-12 05:10:00
12:15 AM,59.0,59.0,100,30.05,0.2,Calm,Calm,-,N/A,Fog,Fog,0,2013-08-12 05:15:00
12:30 AM,59.0,57.2,94,30.05,0.5,Calm,Calm,-,N/A,Fog,Fog,0,2013-08-12 05:30:00
12:54 AM,57.9,57.9,100,30.04,0.2,Calm,Calm,-,N/A,Fog,Fog,0,2013-08-12 05:54:00
1:02 AM,57.2,57.2,100,30.04,1.2,Calm,Calm,-,N/A,,Scattered Clouds,0,2013-08-12 06:02:00
1:10 AM,57.2,57.2,100,30.04,3.0,Calm,Calm,-,N/A,,Scattered Clouds,0,2013-08-12 06:10:00
1:14 AM,57.2,57.2,100,30.04,1.8,Calm,Calm,-,N/A,,Scattered Clouds,0,2013-08-12 06:14:00
1:25 AM,55.4,55.4,100,30.04,3.0,West,3.5,-,N/A,,Partly Cloudy,280,2013-08-12 06:25:00
1:29 AM,55.4,55.4,100,30.04,1.8,West,3.5,-,N/A,,Partly Cloudy,280,2013-08-12 06:29:00
1:32 AM,55.4,55.4,100,30.04,0.8,Calm,Calm,-,N/A,,Partly Cloudy,0,2013-08-12 06:32:00
1:39 AM,55.4,55.4,100,30.04,0.2,West,3.5,-,N/A,Fog,Fog,280,2013-08-12 06:39:00
1:54 AM,57.0,55.9,96,30.03,0.2,Calm,Calm,-,N/A,Fog,Fog,0,2013-08-12 06:54:00
2:54 AM,55.0,54.0,96,30.02,0.2,Calm,Calm,-,N/A,Fog,Fog,0,2013-08-12 07:54:00
3:54 AM,54.0,53.1,97,30.01,0.2,Calm,Calm,-,N/A,Fog,Fog,0,2013-08-12 08:54:00
4:54 AM,54.0,53.1,97,30.00,0.2,Calm,Calm,-,N/A,Fog,Fog,0,2013-08-12 09:54:00
5:54 AM,55.0,54.0,96,30.00,0.2,NW,3.5,-,N/A,Fog,Fog,310,2013-08-12 10:54:00
6:49 AM,55.4,55.4,100,30.01,1.2,Calm,Calm,-,N/A,,Scattered Clouds,0,2013-08-12 11:49:00
6:54 AM,57.0,55.9,96,30.00,3.0,NW,4.6,-,N/A,,Scattered Clouds,310,2013-08-12 11:54:00
6:56 AM,57.2,55.4,94,30.00,1.8,NW,4.6,-,N/A,,Scattered Clouds,310,2013-08-12 11:56:00
6:59 AM,57.2,55.4,94,30.00,1.0,NW,3.5,-,N/A,,Mist,310,2013-08-12 11:59:00
7:10 AM,57.2,57.2,100,30.00,2.0,NNW,3.5,-,N/A,,Mostly Cloudy,330,2013-08-12 12:10:00
7:18 AM,59.0,59.0,100,30.00,6.0,NW,4.6,-,N/A,,Overcast,320,2013-08-12 12:18:00
7:45 AM,59.0,57.2,94,30.00,1.8,NNW,5.8,-,N/A,,Overcast,330,2013-08-12 12:45:00
7:51 AM,60.8,59.0,94,30.00,0.8,NW,4.6,-,N/A,,Overcast,320,2013-08-12 12:51:00
7:54 AM,60.1,59.0,96,30.00,0.8,NW,4.6,-,N/A,,Overcast,320,2013-08-12 12:54:00
8:29 AM,62.6,62.6,100,29.99,1.2,Calm,Calm,-,N/A,,Overcast,0,2013-08-12 13:29:00
8:37 AM,62.6,60.8,94,29.99,3.0,Calm,Calm,-,N/A,,Overcast,0,2013-08-12 13:37:00
8:49 AM,64.4,62.6,94,29.99,6.0,Calm,Calm,-,N/A,,Mostly Cloudy,0,2013-08-12 13:49:00
8:54 AM,64.0,62.1,93,29.99,7.0,Calm,Calm,-,N/A,,Mostly Cloudy,0,2013-08-12 13:54:00
9:54 AM,69.1,61.0,75,29.99,10.0,North,6.9,-,N/A,,Mostly Cloudy,350,2013-08-12 14:54:00
10:54 AM,73.0,59.0,61,29.98,10.0,Variable,3.5,-,N/A,,Clear,0,2013-08-12 15:54:00
11:54 AM,75.0,59.0,57,29.98,10.0,WNW,9.2,-,N/A,,Scattered Clouds,290,2013-08-12 16:54:00
12:54 PM,75.9,55.9,50,29.97,10.0,West,9.2,-,N/A,,Scattered Clouds,280,2013-08-12 17:54:00
1:54 PM,78.1,53.1,42,29.96,10.0,NW,13.8,18.4,N/A,,Clear,320,2013-08-12 18:54:00
2:54 PM,77.0,53.1,43,29.96,10.0,NNW,15.0,21.9,N/A,,Mostly Cloudy,340,2013-08-12 19:54:00
3:54 PM,78.1,50.0,37,29.95,10.0,NNW,12.7,-,N/A,,Scattered Clouds,340,2013-08-12 20:54:00
4:54 PM,77.0,51.1,40,29.95,10.0,NNW,12.7,-,N/A,,Partly Cloudy,340,2013-08-12 21:54:00
5:54 PM,75.9,50.0,40,29.95,10.0,NW,12.7,-,N/A,,Clear,320,2013-08-12 22:54:00
6:54 PM,72.0,51.1,48,29.96,10.0,NNW,9.2,-,N/A,,Overcast,330,2013-08-12 23:54:00
7:54 PM,63.0,55.9,78,29.99,10.0,NNE,9.2,-,0.00,,Mostly Cloudy,20,2013-08-13 00:54:00
8:54 PM,64.0,55.0,73,30.01,10.0,North,6.9,-,N/A,,Mostly Cloudy,10,2013-08-13 01:54:00
9:54 PM,62.1,53.1,72,30.03,10.0,NNE,9.2,18.4,N/A,,Clear,20,2013-08-13 02:54:00
10:54 PM,59.0,50.0,72,30.05,10.0,NNE,6.9,-,N/A,,Clear,30,2013-08-13 03:54:00